{"data":{"norad_id":58734,"intl_designator":"2024-005G","name":"STARLINK-31152","alt_names":[],"object_type":"PAYLOAD","status":"ACTIVE","operator":null,"country":"US","launch_date":"2024-01-07","launch_site_code":"AFETR","launch_vehicle":null,"mission":null,"orbit_class":"UNKNOWN","rcs_meters":null,"size_class":null,"mass_kg":null,"dimensions":null,"purposes":["comms"],"wikipedia_slug":null,"has_3d_model":false,"image_url":null,"decayed_at":null,"tle_current":{"epoch":"2026-05-24T17:04:07.025952Z","epoch_age_seconds":96476,"freshness":"FRESH","line1":"1 58734U 24005G   26144.71119243  .00008804  00000+0  32890-3 0  9997","line2":"2 58734  42.9999 150.1269 0001351 269.2351  90.8346 15.27595697132072","mean_motion":15.27595697,"eccentricity":0.0001351,"inclination_deg":42.9999,"raan_deg":150.1269,"arg_perigee_deg":269.2351,"mean_anomaly_deg":90.8346,"bstar":0.0003289,"rev_number":13207,"period_min":94.265780063925,"perigee_km":482.07515408557,"apogee_km":483.92903386877,"semimajor_km":6861.1390939772,"source":"CELESTRAK","updated_at":"2026-05-25T13:38:18.719893Z"}}}